Location: Nelson
(41.2830°S, 173.2830°E)
Time: 05:58:23
(UTC+13:00)

Meteor 1-26 Rocket - Pass Details

Date: 22 October 2019
Orbit: 817 x 918 km, 81.3° (Epoch: 17 November)

Event Time Altitude Azimuth Distance (km) Brightness Sun altitude
Rises 00:28:51 0° 209° (SSW) 3,384 8.2 -37.1°
Reaches altitude 10° 00:32:12 10° 229° (SW) 2,448 7.1 -37.2°
Enters shadow 00:34:13 15° 250° (WSW) 2,128 6.5 -37.3°
